Location: Kreith
(47.2000°N, 11.3833°E)
Time: 06:17:01
(UTC+00:00)

Daily predictions for brighter satellites

Satellite Brightness Start Highest point End
(mag) Time Altitude Azimuth Time Altitude Azimuth Time Altitude Azimuth
Cosmos 1980 Rocket 2.3 18:48:28 10° NNW 18:54:09 71° ENE 18:59:46 10° SE
Lacrosse 5 2.3 18:52:10 10° NW 18:57:11 57° NNE 19:02:11 10° ESE
IRIDIUM 104 4.3 18:53:11 10° S 18:58:22 76° E 19:03:36 10° N
CZ-2C R/B 4.4 18:54:24 10° NNE 18:58:29 32° E 19:02:30 10° SSE
Resurs 01 Rocket 2.5 18:58:19 10° SE 19:02:18 34° ENE 19:06:19 10° N
Cosmos 1833 Rocket 3.1 18:57:33 10° SW 19:03:09 72° WNW 19:08:48 10° NNE
Cosmos 1697 Rocket 3.4 19:00:59 10° NW 19:06:27 54° WSW 19:11:54 10° S
USA 238 DEB 3.7 19:00:05 10° SSW 19:06:30 55° ESE 19:13:10 10° NE
USA 238 3.7 19:00:12 10° SSW 19:06:36 55° ESE 19:13:16 10° NE
GP-B 4.3 19:03:27 10° NNE 19:07:06 25° E 19:10:45 10° SE
SPOT 3 Rocket 3.8 19:02:05 10° SSE 19:07:10 57° ENE 19:12:15 10° N
IRIDIUM 114 4.4 19:02:18 10° S 19:07:31 90° E 19:12:46 10° N
MOS 1 Rocket 4.1 19:02:44 10° N 19:08:08 68° WNW 19:13:19 10° SSW
Cosmos 1867 3.6 19:03:09 10° SSW 19:08:36 83° SE 19:14:05 10° NE
CENTAUR R/B 3.0 19:05:02 10° S 19:10:18 36° ESE 19:16:23 10° NE
Cosmos 1666 Rocket 3.5 19:06:13 10° S 19:10:29 64° E 19:14:48 10° NNE
Cosmos 1954 Rocket 4.1 19:08:00 10° S 19:13:14 61° ESE 19:18:30 10° NNE
DMSP B5D2-2 4.1 19:09:17 10° NNE 19:14:32 74° ESE 19:19:47 10° S
FREGAT/IRIS 3.7 19:14:34 10° S 19:17:03 38° W 19:19:34 10° NNW
Cosmos 1821 Rocket 4.1 19:11:50 10° S 19:18:00 84° W 19:24:19 10° N
Ariane Rocket 3.7 19:13:08 10° S 19:18:06 56° W 19:23:05 10° NNW
Cosmos 405 Rocket 3.8 19:15:23 10° SSE 19:18:25 24° E 19:21:31 10° NE
Intercosmos 25 3.5 19:15:18 10° NNW 19:18:58 62° W 19:22:07 10° S
Cosmos 1812 4.1 19:16:50 10° NNW 19:20:28 40° W 19:24:05 10° SSW
Cosmos 407 Rocket 4.3 19:18:28 10° SW 19:23:42 57° WNW 19:28:54 10° NNE
SJ-6B 3.8 19:22:12 10° S 19:26:06 48° W 19:29:55 10° NNW
Cosmos 2333 Rocket 4.4 19:25:18 10° N 19:28:11 14° NE 19:31:04 10° ENE
Cosmos 1763 Rocket 4.0 19:23:49 10° NNW 19:28:57 46° ENE 19:33:12 15° SE
Cosmos 1140 Rocket 4.1 19:24:30 10° SSW 19:29:42 64° WNW 19:34:57 10° NNE
Cosmos 1437 Rocket 4.0 19:26:43 10° NNE 19:29:51 24° ENE 19:31:55 16° ESE
Resurs 1-3 3.6 19:26:44 10° SSE 19:31:07 86° WSW 19:35:32 10° NNW
OBJECT-B 1.2 19:30:29 10° S 19:33:44 66° WSW 19:37:02 10° NNW
H-2A R/B 4.2 19:31:20 10° NNE 19:35:04 32° E 19:38:17 13° SSE
Cosmos 2084 Rocket 3.8 19:31:20 10° SSW 19:35:15 40° ESE 19:39:17 10° NE
Cosmos 1633 Rocket 3.2 19:32:55 10° S 19:37:20 81° W 19:41:47 10° N
Cosmos 1184 Rocket 2.7 19:34:55 10° S 19:38:12 89° E 19:41:32 10° N
Landsat 7 4.5 19:36:26 16° SE 19:39:51 39° ENE 19:44:17 10° N
SPOT 5 4.3 19:38:25 13° E 19:40:39 19° ENE 19:43:44 10° NNE
Cosmos 921 Rocket 2.9 19:37:13 10° NNW 19:41:27 87° WSW 19:45:04 14° SSE
Cosmos 2123 Rocket 4.1 19:36:18 10° N 19:42:34 83° W 19:48:50 10° S
Cosmos 1535 Rocket 4.5 19:37:38 10° S 19:43:46 89° E 19:49:56 10° N
MetOp-B 4.3 19:40:52 14° SSE 19:45:25 61° ENE 19:50:43 10° N
Meteor 1-19 Rocket 4.3 19:45:44 10° N 19:51:05 55° ENE 19:54:58 19° SSE
Cosmos 1605 Rocket 3.9 19:46:07 10° S 19:52:11 72° E 19:58:16 10° NNE
Okean 1 3.4 19:49:40 10° N 19:53:42 58° ENE 19:56:09 22° SSE
CZ-2C R/B 3.6 19:49:04 10° N 19:54:05 50° WNW 19:59:07 10° SW
NOSS 3-2 (A) 3.6 19:50:54 10° SW 19:56:38 76° NW 20:03:17 10° NE
USA 267 3.6 19:51:33 10° ENE 19:57:35 38° SE 20:03:35 10° SSW
Cosmos 2219 Rocket 4.1 19:54:58 10° N 19:58:45 18° NE 20:02:33 10° E
Meteor 2-4 Rocket 4.3 19:54:22 10° N 19:59:39 40° ENE 20:02:35 23° SE
Cosmos 540 Rocket 4.0 19:56:54 10° NNW 20:01:53 45° ENE 20:04:39 24° ESE
SL-16 R/B 2.2 19:57:08 10° NNW 20:02:49 75° ENE 20:06:27 23° SE
SL-4 R/B 3.0 20:00:08 10° WNW 20:03:56 42° N 20:07:24 10° ENE
BREEZE-M DEB (TANK) 2.9 20:01:58 10° W 20:04:43 66° N 20:12:06 10° E
SL-27 R/B 2.4 20:04:28 29° SSE 20:05:49 49° ESE 20:09:03 10° NNE
Cosmos 2242 Rocket 3.5 20:01:55 10° N 20:06:21 82° ENE 20:09:08 22° SSE
Cosmos 1470 Rocket 3.8 20:02:47 10° SSW 20:07:10 71° W 20:11:33 10° N
NOSS 3-2 (C) 3.3 20:01:32 10° SW 20:07:15 85° SE 20:13:52 10° NE
Cosmos 2082 Rocket 3.7 20:06:38 10° WSW 20:11:55 39° NW 20:17:14 10° NNE
BREEZE-M DEB (TANK) 1.9 20:09:52 10° WNW 20:12:15 54° N 20:12:31 47° NE
ERS-1 Rocket 3.3 20:16:14 29° SE 20:18:31 50° ENE 20:23:22 10° N
Meteor 1-14 Rocket 4.3 20:13:21 11° S 20:18:57 74° E 20:24:56 10° NNE
Cosmos 2322 Rocket 2.2 20:14:25 10° NNW 20:20:10 82° ENE 20:23:15 29° SSE
Cosmos 967 Rocket 4.5 20:17:23 10° NNW 20:23:48 75° NE 20:27:10 29° SE
Cosmos 1850 Rocket 4.0 20:18:49 10° SSW 20:24:07 85° WNW 20:29:25 10° NNE
Cosmos 1500 3.4 20:25:36 44° ESE 20:25:59 46° E 20:29:36 10° NNE
SPOT 1/Viking Rocket 3.5 20:23:32 27° SSE 20:26:26 85° ENE 20:31:42 10° NNW
Cosmos 841 Rocket 3.5 20:22:20 10° NNW 20:27:36 74° ENE 20:29:56 34° SE
Cosmos 2360 Rocket 2.5 20:23:44 10° NNW 20:29:20 56° ENE 20:31:48 32° ESE
Terra 2.5 20:27:56 31° ESE 20:29:24 40° ENE 20:33:51 10° N
Meteor 1-18 Rocket 4.4 20:24:30 10° NNW 20:30:02 67° W 20:33:52 20° S
USA 276 2.3 20:27:02 10° WNW 20:30:10 56° SSW 20:30:11 56° SSW
X-37B 2.0 20:28:02 10° W 20:30:22 27° SW 20:30:22 27° SW
Okean 3 4.0 20:27:13 10° N 20:31:19 41° ENE 20:32:07 37° ESE
IGS 5A 3.7 20:29:39 28° S 20:31:41 65° W 20:35:50 10° NNW
ATLAS 3B R/B 2.7 20:26:02 10° SSW 20:32:21 51° ESE 20:38:43 10° NE
Cosmos 1238 Rocket 3.9 20:30:32 13° SW 20:32:50 31° WNW 20:35:37 10° N
Cosmos 2237 4.3 20:27:50 10° NNW 20:33:33 66° ENE 20:35:58 35° SE
USA 234 3.6 20:29:00 20° E 20:33:37 61° NNE 20:40:02 10° NW
Cosmos 1666 4.0 20:37:36 25° ENE 20:37:36 25° ENE 20:40:04 10° NNE
Cosmos 1980 Rocket 4.4 20:33:36 10° NW 20:37:32 20° W 20:41:27 10° SW
Cosmos 44 3.5 20:33:42 10° NW 20:38:37 66° WSW 20:40:36 36° SSE
Resurs 01 Rocket 3.4 20:35:03 10° SSW 20:38:49 27° W 20:42:39 10° NW
Iridium 4 Rocket 3.4 20:38:44 41° E 20:39:04 42° E 20:43:01 10° NNE
Lacrosse 5 2.9 20:35:23 10° WNW 20:40:00 36° SW 20:41:50 27° S
CARTOSAT-1 3.5 20:40:31 47° SSE 20:41:43 79° ENE 20:46:04 10° N
CZ-4B DEB 4.2 20:46:38 78° SW 20:46:46 81° WSW 20:50:07 10° NNW
Cosmos 2061 Rocket 4.1 20:50:45 38° SE 20:52:49 54° E 20:58:49 10° NNE
Spot 2 Rocket 4.3 20:51:17 24° SSW 20:54:07 47° W 20:59:02 10° NNW
Cosmos 1814 Rocket 4.0 20:50:01 10° NNW 20:55:16 81° WSW 20:56:56 45° S
COSMOS 2428 3.8 20:50:30 10° NNW 20:55:43 34° NE 20:57:48 26° E
Cosmos 1802 Rocket 4.0 20:54:58 35° SSE 20:57:47 71° E 21:04:06 10° NNE
Cosmos 1869 Rocket 3.7 20:57:44 38° SSW 20:59:22 72° W 21:03:52 10° N
Cosmos 2237 Rocket 4.2 20:55:54 10° N 20:59:46 18° NE 21:02:46 13° ENE
Okean 1-7 4.0 20:56:10 10° NNW 21:00:13 41° W 21:01:51 28° SW
CENTAUR R/B 3.3 20:54:38 10° WSW 21:00:37 56° NW 21:07:46 10° NE
Cosmos 44 Rocket 4.3 20:58:03 10° NNW 21:02:44 39° NE 21:04:15 32° E
Cosmos 1437 Rocket 4.4 21:02:52 10° NW 21:06:05 26° W 21:07:19 22° WSW
Cosmos 1271 Rocket 4.4 21:06:51 10° NNE 21:09:24 23° NE 21:09:24 23° NE
Cosmos 2333 Rocket 2.6 21:08:13 10° NNW 21:13:53 53° ENE 21:15:19 42° ESE
ATLAS 5 CENTAUR R/B 2.2 21:11:10 10° NW 21:14:01 74° NE 21:14:58 54° ESE
Cosmos 1674 Rocket 4.2 21:09:57 10° N 21:13:54 43° ENE 21:13:54 43° ENE
SPOT 5 3.1 21:17:39 47° SW 21:18:21 52° W 21:22:42 10° NNW
Cosmos 1066 Rocket 4.2 21:14:55 10° N 21:20:34 67° ENE 21:21:30 57° SE
Cosmos 1486 Rocket 4.2 21:22:06 51° E 21:22:06 51° E 21:26:53 10° NNE
BREEZE-M DEB (TANK) 4.5 21:09:25 10° W 21:26:38 83° S 21:28:57 40° ESE
Cosmos 1733 Rocket 3.1 21:29:41 72° NE 21:29:41 72° NE 21:33:47 10° NNE
ERBS 4.0 21:27:46 10° NW 21:30:13 30° N 21:30:13 30° N
Meteor 1-11 Rocket 3.8 21:31:46 47° SSW 21:33:28 79° W 21:39:20 10° N
Cosmos 968 Rocket 3.6 21:37:25 57° E 21:37:25 57° E 21:42:00 10° NNE
Lacrosse 4 Rocket 1.6 21:37:37 69° NNW 21:37:37 69° NNW 21:41:31 10° NNE
Tsikada Rocket 3.9 21:30:58 10° N 21:37:21 89° E 21:38:46 57° S
Cosmos 2227 Rocket 4.5 21:40:11 10° ENE 21:40:11 10° ENE 21:40:15 10° ENE
ALOS 2 4.2 21:39:37 24° ENE 21:39:37 24° ENE 21:42:57 10° N
USA 267 3.3 21:34:23 10° NE 21:40:56 77° NNW 21:47:28 10° WSW
Cosmos 2219 Rocket 2.1 21:37:59 10° NNW 21:43:42 77° ENE 21:44:23 67° ESE
SL-4 R/B 3.0 21:40:13 10° WNW 21:42:58 40° NW 21:42:58 40° NW
SL-16 R/B 4.1 21:42:28 10° WNW 21:46:16 19° W 21:48:20 16° SW
Cosmos 1242 Rocket 3.9 21:48:21 10° NNW 21:50:53 38° NW 21:50:53 38° NW
Meteor 1-23 Rocket 4.3 21:50:40 10° NNW 21:56:27 68° W 21:57:15 60° SW
Cosmos 2322 3.8 21:51:26 10° NNW 21:57:02 62° WSW 21:57:25 60° SW
Cosmos 1725 Rocket 4.3 21:55:17 42° SW 21:57:23 64° WNW 22:03:41 10° N
Spot 4 4.0 21:58:19 67° NE 21:58:19 67° NE 22:02:52 10° N
Cosmos 836 Rocket 4.5 21:57:05 10° NNW 22:02:12 71° WSW 22:02:12 71° WSW
Cosmos 1536 4.1 22:03:04 36° WNW 22:03:04 36° WNW 22:06:31 10° N
Cosmos 2322 Rocket 4.2 21:59:58 10° WNW 22:03:28 17° W 22:05:03 15° WSW
Cosmos 1908 Rocket 4.4 22:04:50 45° NNE 22:04:50 45° NNE 22:07:59 10° NNE
Cosmos 1378 Rocket 4.0 22:01:06 10° NNW 22:04:52 59° NW 22:04:52 59° NW
Terra 3.3 22:06:50 26° WSW 22:07:15 27° W 22:11:17 10° NW
Cosmos 2360 Rocket 3.6 22:08:22 10° NW 22:12:57 26° WSW 22:13:33 25° WSW
SL-16 R/B 4.0 22:10:53 10° N 22:15:28 24° NE 22:17:41 19° ENE
USA 234 3.3 22:16:20 54° SSW 22:16:41 55° SW 22:23:06 10° WNW
MOS 1-B Rocket 4.0 22:16:45 10° N 22:22:19 67° WNW 22:23:10 58° WSW
ATLAS 3B R/B 3.6 22:16:53 10° WSW 22:23:09 44° NW 22:29:32 10° NNE
Cosmos 1354 Rocket 4.1 22:23:58 75° NE 22:23:58 75° NE 22:28:52 10° NNE
Cosmos 1975 Rocket 3.9 22:23:52 10° N 22:27:17 49° NNE 22:27:17 49° NNE
Cosmos 2297 Rocket 3.3 22:32:11 32° ENE 22:32:11 32° ENE 22:35:59 10° NE
Meteor 1-21 4.2 22:27:12 10° N 22:33:00 78° ENE 22:33:00 78° ENE
Cosmos 1743 4.4 22:35:21 32° NW 22:35:21 32° NW 22:37:54 10° N
Cosmos 1975 4.3 22:36:14 36° N 22:36:14 36° N 22:38:43 10° N
Meteor 2-9 Rocket 4.2 22:35:06 73° ENE 22:35:06 73° ENE 22:40:36 10° NNE
Thor Agena Rocket 3.6 22:30:12 10° NNE 22:35:03 73° NW 22:35:03 73° NW
Cosmos 1980 3.7 22:31:18 10° NNW 22:36:58 76° ENE 22:36:58 76° ENE
Nimbus 7 Rocket 4.3 22:31:21 10° NNE 22:37:08 72° E 22:37:08 72° E
Timation 2 Rocket 3.9 22:39:51 69° E 22:39:51 69° E 22:45:31 10° NNE
COSMOS 2428 3.3 22:34:41 10° NW 22:39:48 46° W 22:39:48 46° W
Cosmos 2237 Rocket 2.2 22:39:05 10° NNW 22:44:34 79° NNE 22:44:34 79° NNE
Cosmos 2219 3.7 22:46:31 47° ENE 22:46:31 47° ENE 22:50:57 10° NE
SJ 16-02 4.0 22:47:38 11° ENE 22:47:38 11° ENE 22:48:07 10° ENE
Cosmos 1464 Rocket 3.8 22:46:12 80° ESE 22:46:21 81° E 22:52:32 10° N
NOSS 0 Rocket 4.0 22:45:45 10° NNW 22:51:50 65° WSW 22:51:50 65° WSW
Okean 2 Rocket 4.4 22:53:44 35° NE 22:53:44 35° NE 22:56:39 10° NNE
Nadezhda 4 Rocket 3.9 22:48:24 10° N 22:54:42 73° E 22:54:56 72° E
Cosmos 2333 Rocket 3.6 22:53:01 10° NW 22:57:19 28° W 22:57:19 28° W
ALOS 2 4.1 23:17:00 30° NW 23:17:00 30° NW 23:19:41 10° NNW
DNEPR-1 R/B 4.4 23:09:57 10° NW 23:14:43 58° NW 23:14:43 58° NW
Cosmos 1092 Rocket 4.0 23:10:15 10° N 23:16:27 67° ENE 23:16:44 66° E
Helios 1A 4.2 23:18:09 40° NNW 23:18:09 40° NNW 23:20:55 10° NNW
Lacrosse 4 Rocket 4.3 23:14:39 10° WNW 23:16:45 13° NW 23:18:49 10° N
Cosmos 2034 Rocket 3.9 23:19:27 79° WSW 23:19:42 81° W 23:26:05 10° N
Cosmos 2227 Rocket 2.3 23:21:59 68° ENE 23:21:59 68° ENE 23:27:02 10° NNE
USA 267 4.4 23:17:26 10° NE 23:23:29 42° NNW 23:29:32 10° W
Cosmos 2219 Rocket 4.1 23:23:14 10° WNW 23:26:05 18° W 23:26:05 18° W
Meteor 1-12 Rocket 4.3 23:28:42 85° WNW 23:28:42 85° WNW 23:34:44 10° N
Resurs 1-4 Rocket 4.2 23:32:11 10° NE 23:35:16 16° E 23:35:32 16° E
Meteor 2-5 Rocket 4.3 23:31:08 10° N 23:36:31 46° ENE 23:36:52 45° E
Cosmos 158 Rocket 4.2 23:41:25 10° NNW 23:46:39 68° NE 23:46:39 68° NE
Cosmos 1607 4.0 23:41:17 10° NW 23:47:26 70° WSW 23:47:26 70° WSW
Cosmos 2082 3.8 23:48:47 67° ENE 23:48:47 67° ENE 23:53:53 10° NNE
Cosmos 1375 Rocket 4.4 23:48:19 78° SW 23:48:48 89° NW 23:55:28 10° NE
USA 229 DEB 4.0 23:53:16 48° ESE 23:53:16 48° ESE 23:59:39 10° NE
USA 229 4.0 23:53:24 48° ESE 23:53:24 48° ESE 23:59:44 10° NE
Helios 1B rocket 3.7 23:51:40 10° NNE 23:54:18 38° NNE 23:54:18 38° NNE
